EW6492 Weather Reports


Display with metric or nautical units.
time (UTC)temp
F
wind
direction
speed
MPH
gust
MPH
rain 1hr
in
rain 24hr
in
rain mn
in
humidity
%
barometer
mb
20260903001516 89 289 0.0 1.0 0.00 0.00 0.00 63 962.7
20260903000016 90 282 0.0 2.0 0.00 0.00 0.00 61 962.8
20260902234516 91 259 0.0 1.0 0.00 0.00 0.00 59 962.8
20260902233022 92 259 0.0 2.0 0.00 0.00 0.00 56 962.8
20260902231514 93 248 0.0 6.0 0.00 0.00 0.00 55 962.8
20260902230014 93 236 0.0 2.0 0.00 0.00 0.00 53 962.9
20260902224513 94 243 0.0 7.0 0.00 0.00 0.00 53 962.9
20260902223012 94 246 0.0 8.0 0.00 0.00 0.00 53 962.9
20260902221516 94 242 0.0 7.0 0.00 0.00 0.00 52 962.9
20260902220010 95 173 2.0 8.0 0.00 0.00 0.00 51 962.9
20260902214513 96 241 1.0 7.0 0.00 0.00 0.00 51 963.0
20260902213009 96 228 0.0 4.0 0.00 0.00 0.00 50 963.0
20260902211508 97 232 1.0 7.0 0.00 0.00 0.00 48 963.0
20260902210007 97 325 0.0 5.0 0.00 0.00 0.00 48 963.1
20260902204506 98 246 1.0 8.0 0.00 0.00 0.00 48 963.2
20260902203007 97 232 2.0 10.0 0.00 0.00 0.00 47 963.3
20260902201509 97 344 1.0 8.0 0.00 0.00 0.00 48 963.4
20260902200003 97 320 0.0 4.0 0.00 0.00 0.00 49 963.4
20260902194502 97 319 0.0 5.0 0.00 0.00 0.00 46 963.6
20260902193104 97 193 1.0 9.0 0.00 0.00 0.00 48 963.8
20260902191607 98 266 1.0 7.0 0.00 0.00 0.00 47 963.9
20260902190055 97 236 0.0 5.0 0.00 0.00 0.00 48 964.1
20260902184557 96 252 0.0 5.0 0.00 0.00 0.00 49 964.2
20260902183059 96 224 1.0 7.0 0.00 0.00 0.00 49 964.3
20260902181553 95 253 1.0 7.0 0.00 0.00 0.00 51 964.4
20260902180052 96 348 1.0 10.0 0.00 0.00 0.00 49 964.5
20260902174600 96 76 0.0 5.0 0.00 0.00 0.00 51 964.7
20260902173049 96 240 1.0 5.0 0.00 0.00 0.00 51 964.9
20260902171550 95 244 0.0 4.0 0.00 0.00 0.00 50 964.9
20260902170047 95 257 2.0 9.0 0.00 0.00 0.00 51 965.1
20260902164548 95 334 2.0 8.0 0.00 0.00 0.00 52 965.2
20260902163043 95 182 0.0 5.0 0.00 0.00 0.00 54 965.2
20260902161541 93 222 0.0 4.0 0.00 0.00 0.00 56 965.3
20260902160047 93 317 0.0 4.0 0.00 0.00 0.00 59 965.4
20260902154540 92 295 1.0 5.0 0.00 0.00 0.00 58 965.5
20260902153034 91 188 1.0 6.0 0.00 0.00 0.00 61 965.6
20260902151530 91 238 0.0 5.0 0.00 0.00 0.00 63 965.7
20260902150027 90 263 0.0 3.0 0.00 0.00 0.00 65 965.7
20260902144524 89 355 0.0 5.0 0.00 0.00 0.00 68 965.6
20260902143020 87 281 0.0 2.0 0.00 0.00 0.00 70 965.6
20260902141516 86 311 0.0 2.0 0.00 0.00 0.00 72 965.6
20260902140012 84 339 0.0 5.0 0.00 0.00 0.00 76 965.7
20260902134508 82 184 0.0 2.0 0.00 0.00 0.00 82 965.8
20260902133005 81 160 0.0 1.0 0.00 0.00 0.00 84 965.7
20260902131503 79 160 0.0 2.0 0.00 0.00 0.00 87 965.8
20260902130002 77 161 0.0 2.0 0.00 0.00 0.00 90 965.8
20260902124502 75 166 0.0 2.0 0.00 0.00 0.00 94 965.7
20260902123105 74 249 0.0 1.0 0.00 0.00 0.00 95 965.7
20260902121558 74 249 0.0 0.0 0.00 0.00 0.00 96 965.6
20260902120058 73 249 0.0 0.0 0.00 0.00 0.00 96 965.6
20260902114617 73 249 0.0 0.0 0.00 0.00 0.00 96 965.4
20260902113106 73 249 0.0 0.0 0.00 0.00 0.00 96 965.3
20260902111600 72 249 0.0 0.0 0.00 0.00 0.00 95 965.2
20260902110053 73 249 0.0 0.0 0.00 0.00 0.00 96 965.2
20260902104552 73 249 0.0 0.0 0.00 0.00 0.00 95 965.2
20260902103103 73 249 0.0 0.0 0.00 0.00 0.00 95 965.1
20260902101549 73 249 0.0 0.0 0.00 0.00 0.00 95 965.1
20260902100118 73 249 0.0 0.0 0.00 0.00 0.00 95 964.9
20260902094559 73 249 0.0 0.0 0.00 0.00 0.00 95 965.0
20260902093108 73 249 0.0 0.0 0.00 0.00 0.00 95 965.1
20260902091546 73 249 0.0 0.0 0.00 0.00 0.00 95 965.0
20260902090044 73 249 0.0 0.0 0.00 0.00 0.00 95 964.8
20260902084545 74 249 0.0 0.0 0.00 0.00 0.00 94 964.6
20260902083041 74 249 0.0 0.0 0.00 0.00 0.00 94 964.5
20260902081538 74 249 0.0 0.0 0.00 0.00 0.00 94 964.4
20260902080037 74 249 0.0 0.0 0.00 0.00 0.00 94 964.3
20260902074540 75 249 0.0 0.0 0.00 0.00 0.00 93 964.3
20260902073036 75 249 0.0 0.0 0.00 0.00 0.00 93 964.3
20260902071536 75 249 0.0 0.0 0.00 0.00 0.00 93 964.2
20260902070033 75 249 0.0 0.0 0.00 0.00 0.00 93 964.2
20260902064537 75 249 0.0 0.0 0.00 0.00 0.00 92 964.2
20260902063030 76 249 0.0 0.0 0.00 0.00 0.00 91 964.2
20260902061528 76 249 0.0 0.0 0.00 0.00 0.00 91 964.2
20260902060026 77 249 0.0 0.0 0.00 0.00 0.00 89 964.4
20260902054536 77 249 0.0 0.0 0.00 0.00 0.00 88 964.4
20260902053023 78 249 0.0 0.0 0.00 0.00 0.00 87 964.3
20260902051520 78 249 0.0 0.0 0.00 0.00 0.00 84 964.4
20260902050033 79 249 0.0 0.0 0.00 0.00 0.00 83 964.4
20260902044516 79 249 0.0 1.0 0.00 0.00 0.00 83 964.2
20260902043018 80 249 0.0 0.0 0.00 0.00 0.00 81 964.3
20260902041520 81 249 0.0 0.0 0.00 0.00 0.00 79 964.4
20260902040008 81 249 0.0 2.0 0.00 0.00 0.00 78 964.4
20260902034508 81 249 0.0 1.0 0.00 0.00 0.00 78 964.4
20260902033007 81 249 0.0 1.0 0.00 0.00 0.00 78 964.3
20260902031506 82 249 0.0 0.0 0.00 0.00 0.00 77 964.3
20260902030006 82 249 0.0 0.0 0.00 0.00 0.00 76 964.3
20260902024506 83 249 0.0 1.0 0.00 0.00 0.00 75 964.3
20260902023005 83 249 0.0 1.0 0.00 0.00 0.00 74 964.2
20260902021512 84 249 0.0 0.0 0.00 0.00 0.00 73 964.3
20260902020004 84 249 0.0 0.0 0.00 0.00 0.00 72 964.3
20260902014504 84 249 0.0 0.0 0.00 0.00 0.00 71 964.1
20260902013004 85 249 0.0 0.0 0.00 0.00 0.00 70 964.1
20260902011503 85 249 0.0 1.0 0.00 0.00 0.00 70 963.9
20260902010005 86 249 0.0 1.0 0.00 0.00 0.00 68 963.7
20260902004504 87 249 0.0 0.0 0.00 0.00 0.00 67 963.6
20260902003002 88 249 0.0 0.0 0.00 0.00 0.00 64 963.7